timestamp,waterbody_station,lease,latitude,longitude,deployment_start_date,deployment_end_date,sensor,depth,mooring,Dissolved Oxygen_percent saturation,Temperature_degrees Celsius,Salinity_practical salinity units
2022-04-14T00:00:00,Annapolis Basin-Lobster Ledge,,44.678248,-65.683392,2021-06-16,2022-06-20,VR2AR-547094,6.0,fixed,,5.6,
2022-04-14T00:06:00,Annapolis Basin-Lobster Ledge,,44.678248,-65.683392,2021-06-16,2022-06-20,aquaMeasure-670356,4.0,fixed,,5.94,
2022-04-14T00:07:00,Annapolis Basin-1042,1042.0,44.652855,-65.674531,2021-08-27,2022-05-23,aquaMeasure-671014,0.5,float,111.2,5.94,
2022-04-14T00:16:00,Annapolis Basin-Lobster Ledge,,44.678248,-65.683392,2021-06-16,2022-06-20,aquaMeasure-670356,4.0,fixed,,5.94,
2022-04-14T00:26:00,Annapolis Basin-Lobster Ledge,,44.678248,-65.683392,2021-06-16,2022-06-20,aquaMeasure-670356,4.0,fixed,,5.94,
2022-04-14T00:36:00,Annapolis Basin-Lobster Ledge,,44.678248,-65.683392,2021-06-16,2022-06-20,aquaMeasure-670356,4.0,fixed,,5.94,
2022-04-14T00:46:00,Annapolis Basin-Lobster Ledge,,44.678248,-65.683392,2021-06-16,2022-06-20,aquaMeasure-670356,4.0,fixed,,5.94,
2022-04-14T00:56:00,Annapolis Basin-Lobster Ledge,,44.678248,-65.683392,2021-06-16,2022-06-20,aquaMeasure-670356,4.0,fixed,,5.94,
2022-04-14T01:00:00,Annapolis Basin-Lobster Ledge,,44.678248,-65.683392,2021-06-16,2022-06-20,VR2AR-547094,6.0,fixed,,5.6,
2022-04-14T01:06:00,Annapolis Basin-Lobster Ledge,,44.678248,-65.683392,2021-06-16,2022-06-20,aquaMeasure-670356,4.0,fixed,,5.98,
2022-04-14T01:07:00,Annapolis Basin-1042,1042.0,44.652855,-65.674531,2021-08-27,2022-05-23,aquaMeasure-671014,0.5,float,112.5,6.12,
2022-04-14T01:16:00,Annapolis Basin-Lobster Ledge,,44.678248,-65.683392,2021-06-16,2022-06-20,aquaMeasure-670356,4.0,fixed,,5.96,
2022-04-14T01:26:00,Annapolis Basin-Lobster Ledge,,44.678248,-65.683392,2021-06-16,2022-06-20,aquaMeasure-670356,4.0,fixed,,5.96,
2022-04-14T01:36:00,Annapolis Basin-Lobster Ledge,,44.678248,-65.683392,2021-06-16,2022-06-20,aquaMeasure-670356,4.0,fixed,,5.96,
2022-04-14T01:46:00,Annapolis Basin-Lobster Ledge,,44.678248,-65.683392,2021-06-16,2022-06-20,aquaMeasure-670356,4.0,fixed,,5.96,
2022-04-14T01:56:00,Annapolis Basin-Lobster Ledge,,44.678248,-65.683392,2021-06-16,2022-06-20,aquaMeasure-670356,4.0,fixed,,5.96,
2022-04-14T02:00:00,Annapolis Basin-Lobster Ledge,,44.678248,-65.683392,2021-06-16,2022-06-20,VR2AR-547094,6.0,fixed,,5.6,
2022-04-14T02:06:00,Annapolis Basin-Lobster Ledge,,44.678248,-65.683392,2021-06-16,2022-06-20,aquaMeasure-670356,4.0,fixed,,5.98,
2022-04-14T02:07:00,Annapolis Basin-1042,1042.0,44.652855,-65.674531,2021-08-27,2022-05-23,aquaMeasure-671014,0.5,float,111.8,6.08,
2022-04-14T02:16:00,Annapolis Basin-Lobster Ledge,,44.678248,-65.683392,2021-06-16,2022-06-20,aquaMeasure-670356,4.0,fixed,,5.96,
2022-04-14T02:26:00,Annapolis Basin-Lobster Ledge,,44.678248,-65.683392,2021-06-16,2022-06-20,aquaMeasure-670356,4.0,fixed,,5.98,
2022-04-14T02:36:00,Annapolis Basin-Lobster Ledge,,44.678248,-65.683392,2021-06-16,2022-06-20,aquaMeasure-670356,4.0,fixed,,5.98,
2022-04-14T02:46:00,Annapolis Basin-Lobster Ledge,,44.678248,-65.683392,2021-06-16,2022-06-20,aquaMeasure-670356,4.0,fixed,,6.0,
2022-04-14T02:56:00,Annapolis Basin-Lobster Ledge,,44.678248,-65.683392,2021-06-16,2022-06-20,aquaMeasure-670356,4.0,fixed,,6.0,
2022-04-14T03:00:00,Annapolis Basin-Lobster Ledge,,44.678248,-65.683392,2021-06-16,2022-06-20,VR2AR-547094,6.0,fixed,,5.6,
2022-04-14T03:06:00,Annapolis Basin-Lobster Ledge,,44.678248,-65.683392,2021-06-16,2022-06-20,aquaMeasure-670356,4.0,fixed,,6.0,
2022-04-14T03:07:00,Annapolis Basin-1042,1042.0,44.652855,-65.674531,2021-08-27,2022-05-23,aquaMeasure-671014,0.5,float,110.9,6.04,
2022-04-14T03:16:00,Annapolis Basin-Lobster Ledge,,44.678248,-65.683392,2021-06-16,2022-06-20,aquaMeasure-670356,4.0,fixed,,6.0,
2022-04-14T03:26:00,Annapolis Basin-Lobster Ledge,,44.678248,-65.683392,2021-06-16,2022-06-20,aquaMeasure-670356,4.0,fixed,,6.04,
2022-04-14T03:36:00,Annapolis Basin-Lobster Ledge,,44.678248,-65.683392,2021-06-16,2022-06-20,aquaMeasure-670356,4.0,fixed,,6.04,
2022-04-14T03:46:00,Annapolis Basin-Lobster Ledge,,44.678248,-65.683392,2021-06-16,2022-06-20,aquaMeasure-670356,4.0,fixed,,6.02,
2022-04-14T03:56:00,Annapolis Basin-Lobster Ledge,,44.678248,-65.683392,2021-06-16,2022-06-20,aquaMeasure-670356,4.0,fixed,,6.04,
2022-04-14T04:00:00,Annapolis Basin-Lobster Ledge,,44.678248,-65.683392,2021-06-16,2022-06-20,VR2AR-547094,6.0,fixed,,5.6,
2022-04-14T04:06:00,Annapolis Basin-Lobster Ledge,,44.678248,-65.683392,2021-06-16,2022-06-20,aquaMeasure-670356,4.0,fixed,,6.04,
2022-04-14T04:07:00,Annapolis Basin-1042,1042.0,44.652855,-65.674531,2021-08-27,2022-05-23,aquaMeasure-671014,0.5,float,110.5,6.06,
2022-04-14T04:16:00,Annapolis Basin-Lobster Ledge,,44.678248,-65.683392,2021-06-16,2022-06-20,aquaMeasure-670356,4.0,fixed,,6.06,
2022-04-14T04:26:00,Annapolis Basin-Lobster Ledge,,44.678248,-65.683392,2021-06-16,2022-06-20,aquaMeasure-670356,4.0,fixed,,6.08,
2022-04-14T04:36:00,Annapolis Basin-Lobster Ledge,,44.678248,-65.683392,2021-06-16,2022-06-20,aquaMeasure-670356,4.0,fixed,,6.1,
2022-04-14T04:46:00,Annapolis Basin-Lobster Ledge,,44.678248,-65.683392,2021-06-16,2022-06-20,aquaMeasure-670356,4.0,fixed,,6.14,
2022-04-14T04:56:00,Annapolis Basin-Lobster Ledge,,44.678248,-65.683392,2021-06-16,2022-06-20,aquaMeasure-670356,4.0,fixed,,6.16,
2022-04-14T05:00:00,Annapolis Basin-Lobster Ledge,,44.678248,-65.683392,2021-06-16,2022-06-20,VR2AR-547094,6.0,fixed,,5.7,
2022-04-14T05:06:00,Annapolis Basin-Lobster Ledge,,44.678248,-65.683392,2021-06-16,2022-06-20,aquaMeasure-670356,4.0,fixed,,6.18,
2022-04-14T05:07:00,Annapolis Basin-1042,1042.0,44.652855,-65.674531,2021-08-27,2022-05-23,aquaMeasure-671014,0.5,float,110.9,6.16,
2022-04-14T05:16:00,Annapolis Basin-Lobster Ledge,,44.678248,-65.683392,2021-06-16,2022-06-20,aquaMeasure-670356,4.0,fixed,,6.22,
2022-04-14T05:26:00,Annapolis Basin-Lobster Ledge,,44.678248,-65.683392,2021-06-16,2022-06-20,aquaMeasure-670356,4.0,fixed,,6.26,
2022-04-14T05:36:00,Annapolis Basin-Lobster Ledge,,44.678248,-65.683392,2021-06-16,2022-06-20,aquaMeasure-670356,4.0,fixed,,6.3,
2022-04-14T05:46:00,Annapolis Basin-Lobster Ledge,,44.678248,-65.683392,2021-06-16,2022-06-20,aquaMeasure-670356,4.0,fixed,,6.32,
2022-04-14T05:56:00,Annapolis Basin-Lobster Ledge,,44.678248,-65.683392,2021-06-16,2022-06-20,aquaMeasure-670356,4.0,fixed,,6.3,
2022-04-14T06:00:00,Annapolis Basin-Lobster Ledge,,44.678248,-65.683392,2021-06-16,2022-06-20,VR2AR-547094,6.0,fixed,,5.7,
2022-04-14T06:06:00,Annapolis Basin-Lobster Ledge,,44.678248,-65.683392,2021-06-16,2022-06-20,aquaMeasure-670356,4.0,fixed,,6.34,
2022-04-14T06:07:00,Annapolis Basin-1042,1042.0,44.652855,-65.674531,2021-08-27,2022-05-23,aquaMeasure-671014,0.5,float,111.5,6.3,
2022-04-14T06:16:00,Annapolis Basin-Lobster Ledge,,44.678248,-65.683392,2021-06-16,2022-06-20,aquaMeasure-670356,4.0,fixed,,6.44,
2022-04-14T06:26:00,Annapolis Basin-Lobster Ledge,,44.678248,-65.683392,2021-06-16,2022-06-20,aquaMeasure-670356,4.0,fixed,,6.42,
2022-04-14T06:36:00,Annapolis Basin-Lobster Ledge,,44.678248,-65.683392,2021-06-16,2022-06-20,aquaMeasure-670356,4.0,fixed,,6.36,
2022-04-14T06:46:00,Annapolis Basin-Lobster Ledge,,44.678248,-65.683392,2021-06-16,2022-06-20,aquaMeasure-670356,4.0,fixed,,6.46,
2022-04-14T06:56:00,Annapolis Basin-Lobster Ledge,,44.678248,-65.683392,2021-06-16,2022-06-20,aquaMeasure-670356,4.0,fixed,,6.5,
2022-04-14T07:00:00,Annapolis Basin-Lobster Ledge,,44.678248,-65.683392,2021-06-16,2022-06-20,VR2AR-547094,6.0,fixed,,5.7,
2022-04-14T07:06:00,Annapolis Basin-Lobster Ledge,,44.678248,-65.683392,2021-06-16,2022-06-20,aquaMeasure-670356,4.0,fixed,,6.54,
2022-04-14T07:07:00,Annapolis Basin-1042,1042.0,44.652855,-65.674531,2021-08-27,2022-05-23,aquaMeasure-671014,0.5,float,108.8,6.14,
2022-04-14T07:16:00,Annapolis Basin-Lobster Ledge,,44.678248,-65.683392,2021-06-16,2022-06-20,aquaMeasure-670356,4.0,fixed,,6.58,
2022-04-14T07:26:00,Annapolis Basin-Lobster Ledge,,44.678248,-65.683392,2021-06-16,2022-06-20,aquaMeasure-670356,4.0,fixed,,6.46,
2022-04-14T07:36:00,Annapolis Basin-Lobster Ledge,,44.678248,-65.683392,2021-06-16,2022-06-20,aquaMeasure-670356,4.0,fixed,,6.36,
2022-04-14T07:46:00,Annapolis Basin-Lobster Ledge,,44.678248,-65.683392,2021-06-16,2022-06-20,aquaMeasure-670356,4.0,fixed,,6.22,
2022-04-14T07:56:00,Annapolis Basin-Lobster Ledge,,44.678248,-65.683392,2021-06-16,2022-06-20,aquaMeasure-670356,4.0,fixed,,6.24,
2022-04-14T08:00:00,Annapolis Basin-Lobster Ledge,,44.678248,-65.683392,2021-06-16,2022-06-20,VR2AR-547094,6.0,fixed,,5.8,
2022-04-14T08:06:00,Annapolis Basin-Lobster Ledge,,44.678248,-65.683392,2021-06-16,2022-06-20,aquaMeasure-670356,4.0,fixed,,6.24,
2022-04-14T08:07:00,Annapolis Basin-1042,1042.0,44.652855,-65.674531,2021-08-27,2022-05-23,aquaMeasure-671014,0.5,float,107.6,6.1,
2022-04-14T08:16:00,Annapolis Basin-Lobster Ledge,,44.678248,-65.683392,2021-06-16,2022-06-20,aquaMeasure-670356,4.0,fixed,,6.3,
2022-04-14T08:26:00,Annapolis Basin-Lobster Ledge,,44.678248,-65.683392,2021-06-16,2022-06-20,aquaMeasure-670356,4.0,fixed,,6.28,
2022-04-14T08:36:00,Annapolis Basin-Lobster Ledge,,44.678248,-65.683392,2021-06-16,2022-06-20,aquaMeasure-670356,4.0,fixed,,6.28,
2022-04-14T08:46:00,Annapolis Basin-Lobster Ledge,,44.678248,-65.683392,2021-06-16,2022-06-20,aquaMeasure-670356,4.0,fixed,,6.3,
2022-04-14T08:56:00,Annapolis Basin-Lobster Ledge,,44.678248,-65.683392,2021-06-16,2022-06-20,aquaMeasure-670356,4.0,fixed,,6.34,
2022-04-14T09:00:00,Annapolis Basin-Lobster Ledge,,44.678248,-65.683392,2021-06-16,2022-06-20,VR2AR-547094,6.0,fixed,,5.9,
2022-04-14T09:06:00,Annapolis Basin-Lobster Ledge,,44.678248,-65.683392,2021-06-16,2022-06-20,aquaMeasure-670356,4.0,fixed,,6.34,
2022-04-14T09:07:00,Annapolis Basin-1042,1042.0,44.652855,-65.674531,2021-08-27,2022-05-23,aquaMeasure-671014,0.5,float,114.0,6.22,
2022-04-14T09:16:00,Annapolis Basin-Lobster Ledge,,44.678248,-65.683392,2021-06-16,2022-06-20,aquaMeasure-670356,4.0,fixed,,6.26,
2022-04-14T09:26:00,Annapolis Basin-Lobster Ledge,,44.678248,-65.683392,2021-06-16,2022-06-20,aquaMeasure-670356,4.0,fixed,,6.18,
2022-04-14T09:36:00,Annapolis Basin-Lobster Ledge,,44.678248,-65.683392,2021-06-16,2022-06-20,aquaMeasure-670356,4.0,fixed,,6.14,
2022-04-14T09:46:00,Annapolis Basin-Lobster Ledge,,44.678248,-65.683392,2021-06-16,2022-06-20,aquaMeasure-670356,4.0,fixed,,6.1,
2022-04-14T09:56:00,Annapolis Basin-Lobster Ledge,,44.678248,-65.683392,2021-06-16,2022-06-20,aquaMeasure-670356,4.0,fixed,,6.06,
2022-04-14T10:00:00,Annapolis Basin-Lobster Ledge,,44.678248,-65.683392,2021-06-16,2022-06-20,VR2AR-547094,6.0,fixed,,5.7,
2022-04-14T10:06:00,Annapolis Basin-Lobster Ledge,,44.678248,-65.683392,2021-06-16,2022-06-20,aquaMeasure-670356,4.0,fixed,,6.04,
2022-04-14T10:07:00,Annapolis Basin-1042,1042.0,44.652855,-65.674531,2021-08-27,2022-05-23,aquaMeasure-671014,0.5,float,113.3,6.16,
2022-04-14T10:16:00,Annapolis Basin-Lobster Ledge,,44.678248,-65.683392,2021-06-16,2022-06-20,aquaMeasure-670356,4.0,fixed,,6.04,
2022-04-14T10:26:00,Annapolis Basin-Lobster Ledge,,44.678248,-65.683392,2021-06-16,2022-06-20,aquaMeasure-670356,4.0,fixed,,6.04,
2022-04-14T10:36:00,Annapolis Basin-Lobster Ledge,,44.678248,-65.683392,2021-06-16,2022-06-20,aquaMeasure-670356,4.0,fixed,,6.04,
2022-04-14T10:46:00,Annapolis Basin-Lobster Ledge,,44.678248,-65.683392,2021-06-16,2022-06-20,aquaMeasure-670356,4.0,fixed,,6.04,
2022-04-14T10:56:00,Annapolis Basin-Lobster Ledge,,44.678248,-65.683392,2021-06-16,2022-06-20,aquaMeasure-670356,4.0,fixed,,6.04,
2022-04-14T11:00:00,Annapolis Basin-Lobster Ledge,,44.678248,-65.683392,2021-06-16,2022-06-20,VR2AR-547094,6.0,fixed,,5.7,
2022-04-14T11:06:00,Annapolis Basin-Lobster Ledge,,44.678248,-65.683392,2021-06-16,2022-06-20,aquaMeasure-670356,4.0,fixed,,6.04,
2022-04-14T11:07:00,Annapolis Basin-1042,1042.0,44.652855,-65.674531,2021-08-27,2022-05-23,aquaMeasure-671014,0.5,float,113.3,6.06,
2022-04-14T11:16:00,Annapolis Basin-Lobster Ledge,,44.678248,-65.683392,2021-06-16,2022-06-20,aquaMeasure-670356,4.0,fixed,,6.04,
2022-04-14T11:26:00,Annapolis Basin-Lobster Ledge,,44.678248,-65.683392,2021-06-16,2022-06-20,aquaMeasure-670356,4.0,fixed,,6.04,
2022-04-14T11:36:00,Annapolis Basin-Lobster Ledge,,44.678248,-65.683392,2021-06-16,2022-06-20,aquaMeasure-670356,4.0,fixed,,6.04,
2022-04-14T11:46:00,Annapolis Basin-Lobster Ledge,,44.678248,-65.683392,2021-06-16,2022-06-20,aquaMeasure-670356,4.0,fixed,,6.04,
2022-04-14T11:56:00,Annapolis Basin-Lobster Ledge,,44.678248,-65.683392,2021-06-16,2022-06-20,aquaMeasure-670356,4.0,fixed,,6.02,
2022-04-14T12:00:00,Annapolis Basin-Lobster Ledge,,44.678248,-65.683392,2021-06-16,2022-06-20,VR2AR-547094,6.0,fixed,,5.7,
2022-04-14T12:06:00,Annapolis Basin-Lobster Ledge,,44.678248,-65.683392,2021-06-16,2022-06-20,aquaMeasure-670356,4.0,fixed,,6.02,
2022-04-14T12:07:00,Annapolis Basin-1042,1042.0,44.652855,-65.674531,2021-08-27,2022-05-23,aquaMeasure-671014,0.5,float,109.4,6.04,
2022-04-14T12:16:00,Annapolis Basin-Lobster Ledge,,44.678248,-65.683392,2021-06-16,2022-06-20,aquaMeasure-670356,4.0,fixed,,6.02,
2022-04-14T12:26:00,Annapolis Basin-Lobster Ledge,,44.678248,-65.683392,2021-06-16,2022-06-20,aquaMeasure-670356,4.0,fixed,,6.02,
2022-04-14T12:36:00,Annapolis Basin-Lobster Ledge,,44.678248,-65.683392,2021-06-16,2022-06-20,aquaMeasure-670356,4.0,fixed,,6.04,
2022-04-14T12:46:00,Annapolis Basin-Lobster Ledge,,44.678248,-65.683392,2021-06-16,2022-06-20,aquaMeasure-670356,4.0,fixed,,6.04,
2022-04-14T12:56:00,Annapolis Basin-Lobster Ledge,,44.678248,-65.683392,2021-06-16,2022-06-20,aquaMeasure-670356,4.0,fixed,,6.04,
2022-04-14T13:00:00,Annapolis Basin-Lobster Ledge,,44.678248,-65.683392,2021-06-16,2022-06-20,VR2AR-547094,6.0,fixed,,5.7,
2022-04-14T13:06:00,Annapolis Basin-Lobster Ledge,,44.678248,-65.683392,2021-06-16,2022-06-20,aquaMeasure-670356,4.0,fixed,,6.02,
2022-04-14T13:07:00,Annapolis Basin-1042,1042.0,44.652855,-65.674531,2021-08-27,2022-05-23,aquaMeasure-671014,0.5,float,112.0,6.18,
2022-04-14T13:16:00,Annapolis Basin-Lobster Ledge,,44.678248,-65.683392,2021-06-16,2022-06-20,aquaMeasure-670356,4.0,fixed,,6.02,
2022-04-14T13:26:00,Annapolis Basin-Lobster Ledge,,44.678248,-65.683392,2021-06-16,2022-06-20,aquaMeasure-670356,4.0,fixed,,6.04,
2022-04-14T13:36:00,Annapolis Basin-Lobster Ledge,,44.678248,-65.683392,2021-06-16,2022-06-20,aquaMeasure-670356,4.0,fixed,,6.04,
2022-04-14T13:46:00,Annapolis Basin-Lobster Ledge,,44.678248,-65.683392,2021-06-16,2022-06-20,aquaMeasure-670356,4.0,fixed,,6.04,
2022-04-14T13:56:00,Annapolis Basin-Lobster Ledge,,44.678248,-65.683392,2021-06-16,2022-06-20,aquaMeasure-670356,4.0,fixed,,6.02,
2022-04-14T14:00:00,Annapolis Basin-Lobster Ledge,,44.678248,-65.683392,2021-06-16,2022-06-20,VR2AR-547094,6.0,fixed,,5.7,
2022-04-14T14:06:00,Annapolis Basin-Lobster Ledge,,44.678248,-65.683392,2021-06-16,2022-06-20,aquaMeasure-670356,4.0,fixed,,6.04,
2022-04-14T14:07:00,Annapolis Basin-1042,1042.0,44.652855,-65.674531,2021-08-27,2022-05-23,aquaMeasure-671014,0.5,float,113.9,6.3,
2022-04-14T14:16:00,Annapolis Basin-Lobster Ledge,,44.678248,-65.683392,2021-06-16,2022-06-20,aquaMeasure-670356,4.0,fixed,,6.04,
2022-04-14T14:26:00,Annapolis Basin-Lobster Ledge,,44.678248,-65.683392,2021-06-16,2022-06-20,aquaMeasure-670356,4.0,fixed,,6.04,
2022-04-14T14:36:00,Annapolis Basin-Lobster Ledge,,44.678248,-65.683392,2021-06-16,2022-06-20,aquaMeasure-670356,4.0,fixed,,6.04,
2022-04-14T14:46:00,Annapolis Basin-Lobster Ledge,,44.678248,-65.683392,2021-06-16,2022-06-20,aquaMeasure-670356,4.0,fixed,,6.06,
2022-04-14T14:56:00,Annapolis Basin-Lobster Ledge,,44.678248,-65.683392,2021-06-16,2022-06-20,aquaMeasure-670356,4.0,fixed,,6.06,
2022-04-14T15:00:00,Annapolis Basin-Lobster Ledge,,44.678248,-65.683392,2021-06-16,2022-06-20,VR2AR-547094,6.0,fixed,,5.7,
2022-04-14T15:06:00,Annapolis Basin-Lobster Ledge,,44.678248,-65.683392,2021-06-16,2022-06-20,aquaMeasure-670356,4.0,fixed,,6.08,
2022-04-14T15:07:00,Annapolis Basin-1042,1042.0,44.652855,-65.674531,2021-08-27,2022-05-23,aquaMeasure-671014,0.5,float,112.0,6.02,
2022-04-14T15:16:00,Annapolis Basin-Lobster Ledge,,44.678248,-65.683392,2021-06-16,2022-06-20,aquaMeasure-670356,4.0,fixed,,6.1,
2022-04-14T15:26:00,Annapolis Basin-Lobster Ledge,,44.678248,-65.683392,2021-06-16,2022-06-20,aquaMeasure-670356,4.0,fixed,,6.1,
2022-04-14T15:36:00,Annapolis Basin-Lobster Ledge,,44.678248,-65.683392,2021-06-16,2022-06-20,aquaMeasure-670356,4.0,fixed,,6.1,
2022-04-14T15:46:00,Annapolis Basin-Lobster Ledge,,44.678248,-65.683392,2021-06-16,2022-06-20,aquaMeasure-670356,4.0,fixed,,6.12,
2022-04-14T15:56:00,Annapolis Basin-Lobster Ledge,,44.678248,-65.683392,2021-06-16,2022-06-20,aquaMeasure-670356,4.0,fixed,,6.1,
2022-04-14T16:00:00,Annapolis Basin-Lobster Ledge,,44.678248,-65.683392,2021-06-16,2022-06-20,VR2AR-547094,6.0,fixed,,5.7,
2022-04-14T16:06:00,Annapolis Basin-Lobster Ledge,,44.678248,-65.683392,2021-06-16,2022-06-20,aquaMeasure-670356,4.0,fixed,,6.1,
2022-04-14T16:07:00,Annapolis Basin-1042,1042.0,44.652855,-65.674531,2021-08-27,2022-05-23,aquaMeasure-671014,0.5,float,111.5,6.14,
2022-04-14T16:16:00,Annapolis Basin-Lobster Ledge,,44.678248,-65.683392,2021-06-16,2022-06-20,aquaMeasure-670356,4.0,fixed,,6.14,
2022-04-14T16:26:00,Annapolis Basin-Lobster Ledge,,44.678248,-65.683392,2021-06-16,2022-06-20,aquaMeasure-670356,4.0,fixed,,6.14,
2022-04-14T16:36:00,Annapolis Basin-Lobster Ledge,,44.678248,-65.683392,2021-06-16,2022-06-20,aquaMeasure-670356,4.0,fixed,,6.18,
2022-04-14T16:46:00,Annapolis Basin-Lobster Ledge,,44.678248,-65.683392,2021-06-16,2022-06-20,aquaMeasure-670356,4.0,fixed,,6.2,
2022-04-14T16:56:00,Annapolis Basin-Lobster Ledge,,44.678248,-65.683392,2021-06-16,2022-06-20,aquaMeasure-670356,4.0,fixed,,6.24,
2022-04-14T17:00:00,Annapolis Basin-Lobster Ledge,,44.678248,-65.683392,2021-06-16,2022-06-20,VR2AR-547094,6.0,fixed,,5.8,
2022-04-14T17:06:00,Annapolis Basin-Lobster Ledge,,44.678248,-65.683392,2021-06-16,2022-06-20,aquaMeasure-670356,4.0,fixed,,6.28,
2022-04-14T17:07:00,Annapolis Basin-1042,1042.0,44.652855,-65.674531,2021-08-27,2022-05-23,aquaMeasure-671014,0.5,float,111.4,6.18,
2022-04-14T17:16:00,Annapolis Basin-Lobster Ledge,,44.678248,-65.683392,2021-06-16,2022-06-20,aquaMeasure-670356,4.0,fixed,,6.28,
2022-04-14T17:26:00,Annapolis Basin-Lobster Ledge,,44.678248,-65.683392,2021-06-16,2022-06-20,aquaMeasure-670356,4.0,fixed,,6.3,
2022-04-14T17:36:00,Annapolis Basin-Lobster Ledge,,44.678248,-65.683392,2021-06-16,2022-06-20,aquaMeasure-670356,4.0,fixed,,6.28,
2022-04-14T17:46:00,Annapolis Basin-Lobster Ledge,,44.678248,-65.683392,2021-06-16,2022-06-20,aquaMeasure-670356,4.0,fixed,,6.32,
2022-04-14T17:56:00,Annapolis Basin-Lobster Ledge,,44.678248,-65.683392,2021-06-16,2022-06-20,aquaMeasure-670356,4.0,fixed,,6.32,
2022-04-14T18:00:00,Annapolis Basin-Lobster Ledge,,44.678248,-65.683392,2021-06-16,2022-06-20,VR2AR-547094,6.0,fixed,,5.8,
2022-04-14T18:06:00,Annapolis Basin-Lobster Ledge,,44.678248,-65.683392,2021-06-16,2022-06-20,aquaMeasure-670356,4.0,fixed,,6.26,
2022-04-14T18:07:00,Annapolis Basin-1042,1042.0,44.652855,-65.674531,2021-08-27,2022-05-23,aquaMeasure-671014,0.5,float,111.1,6.24,
2022-04-14T18:16:00,Annapolis Basin-Lobster Ledge,,44.678248,-65.683392,2021-06-16,2022-06-20,aquaMeasure-670356,4.0,fixed,,6.26,
2022-04-14T18:26:00,Annapolis Basin-Lobster Ledge,,44.678248,-65.683392,2021-06-16,2022-06-20,aquaMeasure-670356,4.0,fixed,,6.22,
2022-04-14T18:36:00,Annapolis Basin-Lobster Ledge,,44.678248,-65.683392,2021-06-16,2022-06-20,aquaMeasure-670356,4.0,fixed,,6.26,
2022-04-14T18:46:00,Annapolis Basin-Lobster Ledge,,44.678248,-65.683392,2021-06-16,2022-06-20,aquaMeasure-670356,4.0,fixed,,6.24,
2022-04-14T18:56:00,Annapolis Basin-Lobster Ledge,,44.678248,-65.683392,2021-06-16,2022-06-20,aquaMeasure-670356,4.0,fixed,,6.28,
2022-04-14T19:00:00,Annapolis Basin-Lobster Ledge,,44.678248,-65.683392,2021-06-16,2022-06-20,VR2AR-547094,6.0,fixed,,5.8,
2022-04-14T19:06:00,Annapolis Basin-Lobster Ledge,,44.678248,-65.683392,2021-06-16,2022-06-20,aquaMeasure-670356,4.0,fixed,,6.3,
2022-04-14T19:07:00,Annapolis Basin-1042,1042.0,44.652855,-65.674531,2021-08-27,2022-05-23,aquaMeasure-671014,0.5,float,111.1,6.3,
2022-04-14T19:16:00,Annapolis Basin-Lobster Ledge,,44.678248,-65.683392,2021-06-16,2022-06-20,aquaMeasure-670356,4.0,fixed,,6.36,
2022-04-14T19:26:00,Annapolis Basin-Lobster Ledge,,44.678248,-65.683392,2021-06-16,2022-06-20,aquaMeasure-670356,4.0,fixed,,6.44,
2022-04-14T19:36:00,Annapolis Basin-Lobster Ledge,,44.678248,-65.683392,2021-06-16,2022-06-20,aquaMeasure-670356,4.0,fixed,,6.4,
2022-04-14T19:46:00,Annapolis Basin-Lobster Ledge,,44.678248,-65.683392,2021-06-16,2022-06-20,aquaMeasure-670356,4.0,fixed,,6.3,
2022-04-14T19:56:00,Annapolis Basin-Lobster Ledge,,44.678248,-65.683392,2021-06-16,2022-06-20,aquaMeasure-670356,4.0,fixed,,6.28,
2022-04-14T20:00:00,Annapolis Basin-Lobster Ledge,,44.678248,-65.683392,2021-06-16,2022-06-20,VR2AR-547094,6.0,fixed,,5.9,
2022-04-14T20:06:00,Annapolis Basin-Lobster Ledge,,44.678248,-65.683392,2021-06-16,2022-06-20,aquaMeasure-670356,4.0,fixed,,6.28,
2022-04-14T20:07:00,Annapolis Basin-1042,1042.0,44.652855,-65.674531,2021-08-27,2022-05-23,aquaMeasure-671014,0.5,float,110.1,6.14,
2022-04-14T20:16:00,Annapolis Basin-Lobster Ledge,,44.678248,-65.683392,2021-06-16,2022-06-20,aquaMeasure-670356,4.0,fixed,,6.28,
2022-04-14T20:26:00,Annapolis Basin-Lobster Ledge,,44.678248,-65.683392,2021-06-16,2022-06-20,aquaMeasure-670356,4.0,fixed,,6.26,
2022-04-14T20:35:00,Annapolis Basin-Lobster Ledge,,44.678248,-65.683392,2021-06-16,2022-06-20,aquaMeasure-670356,4.0,fixed,,6.28,
2022-04-14T20:45:00,Annapolis Basin-Lobster Ledge,,44.678248,-65.683392,2021-06-16,2022-06-20,aquaMeasure-670356,4.0,fixed,,6.32,
2022-04-14T20:55:00,Annapolis Basin-Lobster Ledge,,44.678248,-65.683392,2021-06-16,2022-06-20,aquaMeasure-670356,4.0,fixed,,6.24,
2022-04-14T21:00:00,Annapolis Basin-Lobster Ledge,,44.678248,-65.683392,2021-06-16,2022-06-20,VR2AR-547094,6.0,fixed,,5.9,
2022-04-14T21:05:00,Annapolis Basin-Lobster Ledge,,44.678248,-65.683392,2021-06-16,2022-06-20,aquaMeasure-670356,4.0,fixed,,6.28,
2022-04-14T21:07:00,Annapolis Basin-1042,1042.0,44.652855,-65.674531,2021-08-27,2022-05-23,aquaMeasure-671014,0.5,float,109.6,6.24,
2022-04-14T21:15:00,Annapolis Basin-Lobster Ledge,,44.678248,-65.683392,2021-06-16,2022-06-20,aquaMeasure-670356,4.0,fixed,,6.42,
2022-04-14T21:25:00,Annapolis Basin-Lobster Ledge,,44.678248,-65.683392,2021-06-16,2022-06-20,aquaMeasure-670356,4.0,fixed,,6.32,
2022-04-14T21:35:00,Annapolis Basin-Lobster Ledge,,44.678248,-65.683392,2021-06-16,2022-06-20,aquaMeasure-670356,4.0,fixed,,6.22,
2022-04-14T21:45:00,Annapolis Basin-Lobster Ledge,,44.678248,-65.683392,2021-06-16,2022-06-20,aquaMeasure-670356,4.0,fixed,,6.18,
2022-04-14T21:55:00,Annapolis Basin-Lobster Ledge,,44.678248,-65.683392,2021-06-16,2022-06-20,aquaMeasure-670356,4.0,fixed,,6.16,
2022-04-14T22:00:00,Annapolis Basin-Lobster Ledge,,44.678248,-65.683392,2021-06-16,2022-06-20,VR2AR-547094,6.0,fixed,,5.8,
2022-04-14T22:05:00,Annapolis Basin-Lobster Ledge,,44.678248,-65.683392,2021-06-16,2022-06-20,aquaMeasure-670356,4.0,fixed,,6.14,
2022-04-14T22:07:00,Annapolis Basin-1042,1042.0,44.652855,-65.674531,2021-08-27,2022-05-23,aquaMeasure-671014,0.5,float,111.0,6.48,
2022-04-14T22:15:00,Annapolis Basin-Lobster Ledge,,44.678248,-65.683392,2021-06-16,2022-06-20,aquaMeasure-670356,4.0,fixed,,6.14,
2022-04-14T22:25:00,Annapolis Basin-Lobster Ledge,,44.678248,-65.683392,2021-06-16,2022-06-20,aquaMeasure-670356,4.0,fixed,,6.16,
2022-04-14T22:35:00,Annapolis Basin-Lobster Ledge,,44.678248,-65.683392,2021-06-16,2022-06-20,aquaMeasure-670356,4.0,fixed,,6.16,
2022-04-14T22:45:00,Annapolis Basin-Lobster Ledge,,44.678248,-65.683392,2021-06-16,2022-06-20,aquaMeasure-670356,4.0,fixed,,6.14,
2022-04-14T22:55:00,Annapolis Basin-Lobster Ledge,,44.678248,-65.683392,2021-06-16,2022-06-20,aquaMeasure-670356,4.0,fixed,,6.16,